Szolnok, Hungary

4:13 PM CEST on June 24, 2017 (GMT +0200)
Szolnok

Weather History for LHSN - October, 2012

Change the Weather History Date:

Tuesday, October 30, 2012

  Actual Average (LHBP) Record (LHBP)
Temperature  
Mean Temperature 37 °F -  
Max Temperature 44 °F 54 °F 68 °F (2004)
Min Temperature 30 °F 36 °F 14 °F (1997)
Degree Days  
Heating Degree Days 28    
Moisture  
Dew Point 30 °F    
Average Humidity 74    
Maximum Humidity 93    
Minimum Humidity 49    
Precipitation  
Precipitation 0.00 in - - ()
Sea Level Pressure  
Sea Level Pressure 29.85 in    
Wind  
Wind Speed 8 mph ()    
Max Wind Speed 16 mph    
Max Gust Speed 27 mph    
Visibility 5.8 miles    
Events Fog    
Averages and records for this station are not official NWS values.
T = Trace of Precipitation, MM = Missing Value Source: Averaged Metar Reports

Daily Weather History Graph

Daily Weather History Graph

Search for Another Location

Airport or City:

Trip Planner

Search our weather history database for the weather conditions in past years. The results will help you decide how hot, cold, wet, or windy it might be!

Date:

Astronomy

Oct. 30, 2012 Rise Set
Actual Time 6:19 AM CET 4:25 PM CET
Civil Twilight 5:47 AM CET 4:57 PM CET
Nautical Twilight 5:11 AM CET 5:32 PM CET
Astronomical Twilight 4:36 AM CET 6:08 PM CET
Moon 4:38 PM CET (10/30) 6:53 AM CET (10/30)
Length of Visible Light 11h 09m
Length of Day
10h 06m
Full, 100% of the Moon is Illuminated
Oct 30
Full
Nov 7
Last Quarter
Nov 13
New
Nov 20
First Quarter
Nov 28
Full

Hourly Weather History & Observations

Time (CET) Temp. Windchill Dew Point Humidity Pressure Visibility Wind Dir Wind Speed Gust Speed Precip Events Conditions
12:15 AM 37.4 °F 33.9 °F 33.8 °F 87% 29.80 in 5.0 mi West 4.5 mph - N/A   Overcast
12:45 AM 37.4 °F 33.9 °F 33.8 °F 87% 29.80 in 5.0 mi West 4.5 mph - N/A   Overcast
1:15 AM 37.4 °F 33.9 °F 32.0 °F 81% 29.83 in 5.0 mi West 4.5 mph - N/A   Overcast
1:25 AM - - - N/A% - 6.2 mi North - - N/A   Overcast
1:45 AM 37.4 °F 33.9 °F 32.0 °F 81% 29.83 in 5.0 mi West 4.5 mph - N/A   Overcast
2:15 AM 37.4 °F 32.2 °F 32.0 °F 81% 29.83 in 6.2 mi West 6.7 mph - N/A   Overcast
2:45 AM 35.6 °F 30.0 °F 32.0 °F 87% 29.83 in 6.2 mi West 6.7 mph - N/A   Overcast
3:15 AM 35.6 °F 28.7 °F 32.0 °F 87% 29.80 in 6.2 mi West 8.9 mph - N/A   Overcast
3:45 AM 35.6 °F 28.7 °F 30.2 °F 81% 29.80 in 6.2 mi West 8.9 mph - N/A   Overcast
4:15 AM 35.6 °F 28.7 °F 30.2 °F 81% 29.80 in 6.2 mi West 8.9 mph - N/A   Overcast
4:45 AM 33.8 °F 26.5 °F 30.2 °F 87% 29.80 in 6.2 mi West 8.9 mph - N/A   Mostly Cloudy
5:15 AM 33.8 °F 26.5 °F 30.2 °F 87% 29.80 in 6.2 mi West 8.9 mph - N/A   Mostly Cloudy
5:45 AM - - - N/A% - 6.2 mi West 8.9 mph - N/A   Clear
6:15 AM 30.2 °F 23.5 °F 28.4 °F 93% 29.80 in - West 6.7 mph - N/A   Clear
6:45 AM 30.2 °F 23.5 °F 28.4 °F 93% 29.83 in - West 6.7 mph - N/A   Clear
7:15 AM 32.0 °F 24.3 °F 28.4 °F 87% 29.83 in 6.2 mi West 8.9 mph - N/A   Scattered Clouds
7:45 AM 32.0 °F 24.3 °F 28.4 °F 87% 29.83 in 6.2 mi West 8.9 mph - N/A   Scattered Clouds
8:15 AM 32.0 °F 24.3 °F 28.4 °F 87% 29.83 in 6.2 mi West 8.9 mph - N/A   Scattered Clouds
8:45 AM - - - N/A% - - West 8.9 mph - N/A   Clear
9:15 AM 37.4 °F 29.1 °F 28.4 °F 70% 29.83 in 6.2 mi West 13.4 mph - N/A   Scattered Clouds
9:45 AM 39.2 °F 32.2 °F 28.4 °F 65% 29.83 in 6.2 mi West 11.2 mph - N/A   Partly Cloudy
10:15 AM 39.2 °F 32.2 °F 30.2 °F 70% 29.83 in 6.2 mi WNW 11.2 mph - N/A   Partly Cloudy
10:33 AM 41.0 °F 32.9 °F 28.4 °F 61% 29.83 in 6.2 mi WNW 15.7 mph 26.8 mph N/A   Partly Cloudy
10:45 AM 41.0 °F 33.6 °F 28.4 °F 61% 29.83 in 6.2 mi WNW 13.4 mph 26.8 mph N/A   Partly Cloudy
11:15 AM 42.8 °F 35.2 °F 30.2 °F 61% 29.83 in 6.2 mi WNW 15.7 mph - N/A   Scattered Clouds
11:45 AM - - - N/A% - 6.2 mi West 8.9 mph - N/A   Clear
12:15 PM 42.8 °F 35.2 °F 26.6 °F 53% 29.83 in 6.2 mi West 15.7 mph 26.8 mph N/A   Scattered Clouds
12:45 PM 42.8 °F 35.2 °F 26.6 °F 53% 29.83 in 6.2 mi West 15.7 mph - N/A   Scattered Clouds
1:15 PM 44.6 °F 38.2 °F 26.6 °F 49% 29.83 in 6.2 mi West 13.4 mph 24.6 mph N/A   Partly Cloudy
1:45 PM 42.8 °F 35.9 °F 26.6 °F 53% 29.83 in 6.2 mi West 13.4 mph - N/A   Partly Cloudy
2:15 PM 42.8 °F 36.7 °F 26.6 °F 53% 29.83 in 6.2 mi WSW 11.2 mph - N/A   Partly Cloudy
2:45 PM 42.8 °F 36.7 °F 26.6 °F 53% 29.83 in 6.2 mi WSW 11.2 mph - N/A   Scattered Clouds
3:15 PM 42.8 °F 37.6 °F 28.4 °F 57% 29.86 in - WSW 8.9 mph - N/A   Clear
3:45 PM 42.8 °F 37.6 °F 30.2 °F 61% 29.86 in - WSW 8.9 mph - N/A   Clear
4:15 PM 41.0 °F 35.4 °F 30.2 °F 65% 29.86 in - WSW 8.9 mph - N/A   Clear
4:45 PM 39.2 °F 34.4 °F 30.2 °F 70% 29.86 in - WSW 6.7 mph - N/A   Clear
5:15 PM 39.2 °F 34.4 °F 30.2 °F 70% 29.86 in - SW 6.7 mph - N/A   Clear
5:45 PM - - - N/A% - - SSW 6.7 mph - N/A   Clear
6:15 PM 39.2 °F 34.4 °F 30.2 °F 70% 29.89 in - SW 6.7 mph - N/A   Clear
6:45 PM 39.2 °F 34.4 °F 30.2 °F 70% 29.89 in - SSW 6.7 mph - N/A   Clear
7:15 PM 37.4 °F 32.2 °F 30.2 °F 75% 29.89 in - SSW 6.7 mph - N/A   Clear
7:45 PM 37.4 °F 32.2 °F 30.2 °F 75% 29.89 in - SSW 6.7 mph - N/A   Clear
8:15 PM 35.6 °F 30.0 °F 30.2 °F 81% 29.89 in - SSW 6.7 mph - N/A   Clear
8:45 PM - - - N/A% - 1.9 mi SSW 6.7 mph - N/A Fog Light Freezing Fog
9:15 PM 37.4 °F 30.9 °F 32.0 °F 81% 29.92 in - SSW 8.9 mph - N/A   Clear
9:45 PM 37.4 °F 32.2 °F 32.0 °F 81% 29.92 in - SSW 6.7 mph - N/A   Clear
10:15 PM 37.4 °F 32.2 °F 32.0 °F 81% 29.92 in - South 6.7 mph - N/A   Clear
10:45 PM 37.4 °F 32.2 °F 30.2 °F 75% 29.92 in - South 6.7 mph - N/A   Clear
11:15 PM 37.4 °F 30.9 °F 30.2 °F 75% 29.92 in - South 8.9 mph - N/A   Clear
11:45 PM - - - N/A% - 3.1 mi South 8.9 mph - N/A Fog Light Freezing Fog